DW1296 Culebra PR US current weather conditions

sailwx.info

Wind from 128 at 12 knots gusting 17

Air temperature 28.9° C
Dewpoint 25.7° C

Last reported at 2020-Jul-10 19:03 UTC.
Time now 2020-Jul-10 19:50 UTC

Location: N 18°18' W 065°16'.
View on Google Maps.

See reports from other nearby stations

  
Tides and Currents Weather Stations Pressure Air Temp Water Temp Dewpoint Dewpoint Depression Visibility Wind Speed Wind Dir Waves Ship Positions
date/time (UTC)wind fromknots sea level pressurealtimeterstation pressurevisibilityair tempwater tempwave heightnotes
2020-Jul-10 19:03 128 12 gusting 17 28.9
2020-Jul-10 18:48 137 13 gusting 16 28.9
2020-Jul-10 18:33 146 10 gusting 16 29.4
2020-Jul-10 18:18 135 11 gusting 15 29.4
2020-Jul-10 18:03 097 10 gusting 15 29.4
2020-Jul-10 17:48 110 11 gusting 16 29.4
2020-Jul-10 17:33 126 12 gusting 16 28.9
2020-Jul-10 17:18 113 11 gusting 15 29.4
2020-Jul-10 17:03 111 11 gusting 17 29.4
2020-Jul-10 16:48 139 12 gusting 16 29.4
2020-Jul-10 16:33 125 12 gusting 16 29.4
2020-Jul-10 16:19 110 9 gusting 16 29.4
2020-Jul-10 16:03 121 11 gusting 17 28.9
2020-Jul-10 15:48 112 11 gusting 17 29.4
2020-Jul-10 15:33 122 11 gusting 17 29.4
2020-Jul-10 15:18 118 11 gusting 15 29.4
2020-Jul-10 15:03 126 12 gusting 15 28.9
2020-Jul-10 14:48 107 13 gusting 18 28.9
2020-Jul-10 14:33 115 11 gusting 19 28.9
2020-Jul-10 14:18 141 12 gusting 16 28.9
2020-Jul-10 14:03 137 13 gusting 18 28.9
2020-Jul-10 13:48 133 8 gusting 14 29.4
2020-Jul-10 13:33 112 11 gusting 14 29.4
2020-Jul-10 13:18 125 8 gusting 14 29.4
2020-Jul-10 13:03 128 11 gusting 16 28.9
2020-Jul-10 12:48 086 10 gusting 15 28.9
2020-Jul-10 12:33 109 10 gusting 14 28.9
2020-Jul-10 12:18 123 9 gusting 16 28.3
2020-Jul-10 12:03 112 9 gusting 16 28.3
2020-Jul-10 11:48 093 9 gusting 15 27.8
2020-Jul-10 11:33 109 9 gusting 16 27.8
2020-Jul-10 11:18 101 10 gusting 14 27.8
2020-Jul-10 11:03 106 11 gusting 17 27.2
2020-Jul-10 10:48 127 9 gusting 12 26.7
2020-Jul-10 10:33 101 6 gusting 10 25.6
2020-Jul-10 10:18 077 6 gusting 9 25.0
2020-Jul-10 10:03 096 6 gusting 8 25.0
2020-Jul-10 09:48 095 6 gusting 9 25.0
2020-Jul-10 09:33 076 6 gusting 9 24.4
2020-Jul-10 09:18 081 6 gusting 9 24.4
2020-Jul-10 09:03 113 6 gusting 9 24.4
2020-Jul-10 08:48 114 7 gusting 12 24.4
2020-Jul-10 08:33 091 7 gusting 12 24.4
2020-Jul-10 08:18 133 4 gusting 14 25.6
2020-Jul-10 08:03 118 5 gusting 7 26.1
2020-Jul-10 07:48 069 6 gusting 13 26.7
2020-Jul-10 07:33 069 6 gusting 11 26.7
2020-Jul-10 07:18 113 6 gusting 10 26.7
2020-Jul-10 07:03 078 6 gusting 11 26.7
2020-Jul-10 06:48 061 7 gusting 13 27.2
2020-Jul-10 06:33 097 6 gusting 12 26.7
2020-Jul-10 06:18 091 8 gusting 13 27.2
2020-Jul-10 06:03 095 9 gusting 13 27.2
2020-Jul-10 05:48 090 9 gusting 14 27.2
2020-Jul-10 05:33 102 9 gusting 13 27.2
2020-Jul-10 05:18 088 7 gusting 13 27.2
2020-Jul-10 05:03 087 7 gusting 11 27.2
2020-Jul-10 04:48 085 7 gusting 11 27.2
2020-Jul-10 04:33 085 6 gusting 10 27.2
2020-Jul-10 04:18 091 6 gusting 11 27.2
2020-Jul-10 04:03 090 10 gusting 13 27.2
2020-Jul-10 03:48 066 8 gusting 12 27.2
2020-Jul-10 03:33 083 6 gusting 11 27.2
2020-Jul-10 03:18 066 6 gusting 11 27.2
2020-Jul-10 03:03 065 7 gusting 14 27.2
2020-Jul-10 02:48 094 10 gusting 14 27.2
2020-Jul-10 02:33 078 9 gusting 13 27.2
2020-Jul-10 02:18 086 9 gusting 13 27.2
2020-Jul-09 23:48 113 7 gusting 10 27.2
2020-Jul-09 23:33 104 6 gusting 11 27.8
2020-Jul-09 23:18 110 7 gusting 12 27.8
2020-Jul-09 23:03 118 8 gusting 12 27.8
2020-Jul-09 22:48 114 8 gusting 13 27.8
2020-Jul-09 22:33 109 6 gusting 13 27.8
2020-Jul-09 22:18 088 8 gusting 14 27.8
2020-Jul-09 22:03 120 10 gusting 13 27.8
2020-Jul-09 21:48 131 9 gusting 13 28.3
2020-Jul-09 21:33 102 8 gusting 14 28.3
2020-Jul-09 21:18 114 8 gusting 14 28.3
2020-Jul-09 21:03 138 10 gusting 13 28.3
2020-Jul-09 20:48 100 8 gusting 15 28.9
2020-Jul-09 20:33 119 10 gusting 14 28.9
2020-Jul-09 20:03 113 11 gusting 14 28.9
2020-Jul-09 19:48 102 9 gusting 13 28.9
2020-Jul-09 19:33 129 11 gusting 15 28.9
2020-Jul-09 19:18 109 11 gusting 13 29.4
2020-Jul-09 19:03 133 9 gusting 15 28.9
2020-Jul-09 18:48 129 8 gusting 13 29.4
2020-Jul-09 18:33 133 9 gusting 14 29.4
2020-Jul-09 18:18 116 10 gusting 15 29.4
2020-Jul-09 18:03 132 10 gusting 15 29.4
2020-Jul-09 17:48 091 9 gusting 15 29.4
2020-Jul-09 17:33 132 11 gusting 16 29.4
2020-Jul-09 17:18 142 11 gusting 16 29.4
2020-Jul-09 17:03 123 12 gusting 16 29.4
2020-Jul-09 16:48 087 10 gusting 15 29.4
2020-Jul-09 16:18 130 9 gusting 13 29.4
2020-Jul-09 16:03 136 9 gusting 13 29.4
2020-Jul-09 15:48 113 8 gusting 13 29.4
2020-Jul-09 15:33 097 7 gusting 14 30.6
2020-Jul-09 15:18 033 7 gusting 13 30.0
2020-Jul-09 15:03 073 6 gusting 11 30.6
2020-Jul-09 14:48 090 7 gusting 13 30.6
2020-Jul-09 14:33 088 8 gusting 13 30.0
2020-Jul-09 14:18 109 8 gusting 14 30.0
2020-Jul-09 14:03 080 8 gusting 12 30.0
2020-Jul-09 13:48 104 8 gusting 13 29.4
2020-Jul-09 13:33 104 6 gusting 11 29.4
2020-Jul-09 13:18 093 6 gusting 12 29.4
2020-Jul-09 13:03 109 9 gusting 13 28.9
2020-Jul-09 12:48 073 8 gusting 17 28.9
2020-Jul-09 12:33 092 8 gusting 14 28.3
2020-Jul-09 12:18 085 6 gusting 12 28.3
2020-Jul-09 12:03 092 8 gusting 13 28.3
2020-Jul-09 11:49 073 9 gusting 16 27.8
2020-Jul-09 11:33 085 9 gusting 15 27.2
2020-Jul-09 11:18 089 10 gusting 14 27.2
2020-Jul-09 11:03 072 5 gusting 10 26.7
2020-Jul-09 10:48 073 8 gusting 13 26.7
2020-Jul-09 10:33 071 6 gusting 7 26.7
2020-Jul-09 10:18 055 5 gusting 7 26.7
2020-Jul-09 10:03 098 5 gusting 7 26.7
2020-Jul-09 09:48 078 4 gusting 8 26.7
2020-Jul-09 09:33 085 5 gusting 8 26.7
2020-Jul-09 09:18 086 6 gusting 10 26.7
2020-Jul-09 09:03 102 7 gusting 11 26.7
2020-Jul-09 08:48 106 7 gusting 10 26.7
2020-Jul-09 08:33 088 8 gusting 13 26.7
2020-Jul-09 08:18 093 7 gusting 11 26.7
2020-Jul-09 08:03 072 6 gusting 11 26.7
2020-Jul-09 07:48 066 6 gusting 10 26.7
2020-Jul-09 07:33 096 9 gusting 13 26.7
2020-Jul-09 07:18 099 7 gusting 12 26.7
2020-Jul-09 07:03 078 6 gusting 11 26.7
2020-Jul-09 06:48 104 8 gusting 11 26.7
2020-Jul-09 06:33 114 7 gusting 14 26.7
2020-Jul-09 06:18 096 8 gusting 14 26.7
2020-Jul-09 06:03 081 6 gusting 11 26.7
2020-Jul-09 05:48 088 6 gusting 12 26.7
2020-Jul-09 05:33 078 6 gusting 11 26.7
2020-Jul-09 05:18 081 6 gusting 10 26.7
2020-Jul-09 05:03 082 7 gusting 11 27.2
2020-Jul-09 04:48 090 7 gusting 11 27.2
2020-Jul-09 04:33 086 7 gusting 11 27.2
2020-Jul-09 04:18 119 6 gusting 10 27.2
2020-Jul-09 04:03 088 7 gusting 11 27.2
2020-Jul-09 03:48 092 6 gusting 12 27.2
2020-Jul-09 03:33 116 7 gusting 13 27.2
2020-Jul-09 03:18 078 7 gusting 14 27.2
2020-Jul-09 03:03 109 9 gusting 15 27.2
2020-Jul-09 02:48 102 7 gusting 14 27.2
2020-Jul-09 02:33 108 8 gusting 13 27.2
2020-Jul-09 02:18 114 9 gusting 13 27.2
2020-Jul-09 02:03 101 9 gusting 13 27.2
2020-Jul-09 01:48 109 8 gusting 13 27.2
2020-Jul-09 01:33 104 12 gusting 15 27.2
2020-Jul-09 01:18 139 9 gusting 14 27.2
2020-Jul-09 01:03 133 10 gusting 13 27.2
2020-Jul-09 00:48 145 6 gusting 13 27.2
2020-Jul-09 00:33 125 9 gusting 12 27.2
2020-Jul-09 00:18 104 9 gusting 15 27.2
2020-Jul-09 00:03 120 11 gusting 13 27.2
2020-Jul-08 23:48 108 10 gusting 15 27.2
2020-Jul-08 23:33 132 11 gusting 13 27.2
2020-Jul-08 23:18 132 10 gusting 14 27.2
2020-Jul-08 23:04 106 9 gusting 15 27.2
2020-Jul-08 22:48 125 11 gusting 16 27.8
2020-Jul-08 22:33 099 12 gusting 16 27.8
2020-Jul-08 22:18 113 10 gusting 14 27.8
2020-Jul-08 22:03 128 11 gusting 16 27.8
2020-Jul-08 21:48 099 11 gusting 15 27.8
2020-Jul-08 21:33 137 12 gusting 16 27.8
2020-Jul-08 21:18 145 10 gusting 15 27.8
2020-Jul-08 21:03 111 12 gusting 15 28.3
2020-Jul-08 20:48 118 11 gusting 15 28.3
2020-Jul-08 20:33 119 10 gusting 17 28.3
2020-Jul-08 20:18 114 11 gusting 16 28.3
2020-Jul-08 20:03 118 11 gusting 16 28.3
2020-Jul-08 19:48 116 12 gusting 17 28.3
2020-Jul-08 19:33 104 12 gusting 17 28.9
2020-Jul-08 19:18 118 12 gusting 17 28.9
2020-Jul-08 19:03 120 13 gusting 19 28.9